Akron, CO

10:37 AM MDT on July 20, 2017 (GMT -0600)
Akron-Washington County

Weather History for KAKO - July, 2014

Change the Weather History Date:

Thursday, July 24, 2014

  Actual Average Record
Temperature  
Mean Temperature 85 °F 74 °F  
Max Temperature 101 °F 89 °F 106 °F (1940)
Min Temperature 68 °F 60 °F 51 °F (1991)
Degree Days  
Heating Degree Days 0    
Month to date heating degree days 10  
Cooling Degree Days 20    
Month to date cooling degree days 225  
Growing Degree Days 34 (Base 50)    
Moisture  
Dew Point 51 °F    
Average Humidity 47    
Maximum Humidity 81    
Minimum Humidity 12    
Precipitation  
Precipitation 0.00 in 0.10 in 1.31 in (1968)
Month to date precipitation 1.12 1.93  
Year to date precipitation 9.64 10.57  
Sea Level Pressure  
Sea Level Pressure 29.84 in    
Wind  
Wind Speed 14 mph (SSW)    
Max Wind Speed 29 mph    
Max Gust Speed 37 mph    
Visibility 10 miles    
Events      
T = Trace of Precipitation, MM = Missing Value Source: NWS Daily Summary

Daily Weather History Graph

Daily Weather History Graph

Search for Another Location

Airport or City:

Trip Planner

Search our weather history database for the weather conditions in past years. The results will help you decide how hot, cold, wet, or windy it might be!

Date:

Astronomy

Jul. 24, 2014 Rise Set
Actual Time 5:43 AM MDT 8:14 PM MDT
Civil Twilight 5:12 AM MDT 8:45 PM MDT
Nautical Twilight 4:33 AM MDT 9:24 PM MDT
Astronomical Twilight 3:50 AM MDT 10:07 PM MDT
Moon 3:53 AM MDT (7/24) 6:31 PM MDT (7/24)
Length of Visible Light 15h 33m
Length of Day
14h 31m
Waning Crescent, 4% of the Moon is Illuminated
Jul 24
Waning Crescent
Jul 26
New
Aug 3
First Quarter
Aug 10
Full
Aug 17
Last Quarter

Hourly Weather History & Observations

Time (MDT) Temp. Dew Point Humidity Pressure Visibility Wind Dir Wind Speed Gust Speed Precip Events Conditions
12:53 AM 73.0 °F 63.0 °F 71% 30.00 in 10.0 mi South 18.4 mph 25.3 mph N/A   Clear
1:53 AM 70.0 °F 63.0 °F 78% 29.98 in 10.0 mi SSE 15.0 mph 24.2 mph N/A   Clear
2:53 AM 68.0 °F 63.0 °F 84% 29.94 in 10.0 mi South 17.3 mph 25.3 mph N/A   Clear
3:53 AM 69.1 °F 62.1 °F 78% 29.91 in 10.0 mi South 11.5 mph 24.2 mph N/A   Clear
4:53 AM 68.0 °F 59.0 °F 73% 29.91 in 10.0 mi South 12.7 mph 25.3 mph N/A   Clear
5:53 AM 68.0 °F 55.0 °F 63% 29.90 in 10.0 mi South 10.4 mph - N/A   Clear
6:53 AM 73.0 °F 51.1 °F 46% 29.89 in 10.0 mi SSW 10.4 mph - N/A   Clear
7:53 AM 80.1 °F 50.0 °F 35% 29.88 in 10.0 mi SSW 20.7 mph 28.8 mph N/A   Clear
8:53 AM 88.0 °F 46.9 °F 24% 29.85 in 10.0 mi SSW 19.6 mph 28.8 mph N/A   Clear
9:53 AM 91.9 °F 43.0 °F 18% 29.84 in 10.0 mi SSW 13.8 mph 27.6 mph N/A   Clear
10:53 AM 95.0 °F 48.0 °F 20% 29.83 in 10.0 mi SW 16.1 mph 25.3 mph N/A   Clear
11:53 AM 96.1 °F 48.0 °F 19% 29.81 in 10.0 mi West 8.1 mph 20.7 mph N/A   Clear
12:53 PM 98.1 °F 45.0 °F 16% 29.78 in 10.0 mi Variable 6.9 mph - N/A   Clear
1:53 PM 100.0 °F 41.0 °F 13% 29.76 in 10.0 mi NW 9.2 mph - N/A   Clear
2:53 PM 100.0 °F 39.9 °F 13% 29.74 in 10.0 mi West 9.2 mph - N/A   Clear
3:53 PM 98.1 °F 39.0 °F 13% 29.73 in 10.0 mi WNW 12.7 mph 16.1 mph N/A   Clear
4:53 PM 87.1 °F 48.0 °F 26% 29.78 in 10.0 mi NNW 23.0 mph 33.4 mph N/A   Scattered Clouds
5:53 PM 84.0 °F 48.9 °F 29% 29.79 in 10.0 mi NNE 15.0 mph 27.6 mph N/A   Clear
6:53 PM 86.0 °F 46.9 °F 26% 29.78 in 10.0 mi NNW 10.4 mph - N/A   Clear
7:53 PM 81.0 °F 50.0 °F 34% 29.79 in 10.0 mi SSE 9.2 mph - N/A   Clear
8:53 PM 78.1 °F 52.0 °F 40% 29.81 in 10.0 mi South 6.9 mph - N/A   Partly Cloudy
9:53 PM 77.0 °F 51.1 °F 40% 29.80 in 10.0 mi South 8.1 mph - N/A   Clear
10:28 PM 75.0 °F 51.1 °F 43% 30.03 in 10.0 mi WSW 8.1 mph - N/A   Partly Cloudy
10:53 PM 75.0 °F 53.1 °F 46% 29.80 in 10.0 mi SSW 12.7 mph - N/A   Clear
11:53 PM 71.1 °F 53.1 °F 53% 29.77 in 10.0 mi SW 6.9 mph - N/A   Clear